DFHBG EDFE-LZPP

Flight info

Callsign DFHBG
Flight time 1h 23m
Altitude 31000
Route N0160A040 VFR BOMBI IFR L984 SULUS Z650 VEMUT DCT NELPA DCT BERVA
Aircraft TBM8/L-SDFGRWY/S

Departure

Time 2026-04-28 15:25
Airport Frankfurt-Egelsbach Airport (EDFE)

Arrival

Time 2026-04-28 16:48
Airport Piešťany Airport (LZPP)
Time Latitude Longitude Altitude Speed Heading
2026-04-28 15:14 49.96224 8.64291 388 ft 0 kts 265°
2026-04-28 15:21 49.96201 8.64256 388 ft 13 kts 180°
2026-04-28 15:21 49.96168 8.64200 388 ft 8 kts 265°
2026-04-28 15:21 49.96162 8.64067 388 ft 17 kts 266°
2026-04-28 15:22 49.96151 8.63822 388 ft 27 kts 266°
2026-04-28 15:22 49.96137 8.63535 388 ft 26 kts 265°
2026-04-28 15:22 49.96124 8.63280 388 ft 15 kts 262°
2026-04-28 15:22 49.96086 8.63209 387 ft 0 kts 222°
2026-04-28 15:23 49.96086 8.63208 387 ft 2 kts 222°
2026-04-28 15:23 49.96038 8.63204 386 ft 9 kts 98°
2026-04-28 15:24 49.96038 8.63214 386 ft 0 kts 84°
2026-04-28 15:24 49.96044 8.63349 386 ft 39 kts 86°
2026-04-28 15:24 49.96081 8.64068 420 ft 88 kts 78°
2026-04-28 15:24 49.96127 8.65170 637 ft 115 kts 82°
2026-04-28 15:25 49.96165 8.66516 969 ft 134 kts 83°
2026-04-28 15:25 49.96204 8.68052 1171 ft 150 kts 84°
2026-04-28 15:25 49.96256 8.69753 1260 ft 163 kts 84°
2026-04-28 15:25 49.96333 8.71533 1283 ft 167 kts 83°
2026-04-28 15:26 49.96419 8.73342 1323 ft 169 kts 83°
2026-04-28 15:26 49.96510 8.75174 1341 ft 172 kts 84°
2026-04-28 15:26 49.96611 8.77007 1306 ft 172 kts 83°
2026-04-28 15:26 49.96743 8.78849 1343 ft 171 kts 76°
2026-04-28 15:27 49.97036 8.80554 1720 ft 154 kts 73°
2026-04-28 15:27 49.97292 8.82165 2130 ft 153 kts 75°
2026-04-28 15:27 49.97534 8.83765 2645 ft 152 kts 75°
2026-04-28 15:27 49.97767 8.85367 3252 ft 150 kts 75°
2026-04-28 15:28 49.97993 8.86923 3837 ft 145 kts 74°
2026-04-28 15:28 49.98214 8.88423 4443 ft 140 kts 75°
2026-04-28 15:28 49.98427 8.89865 5047 ft 134 kts 75°
2026-04-28 15:28 49.98634 8.91279 5616 ft 135 kts 76°
2026-04-28 15:29 49.98838 8.92700 6165 ft 136 kts 76°
2026-04-28 15:29 49.99043 8.94134 6682 ft 138 kts 76°
2026-04-28 15:29 49.99253 8.95604 7151 ft 141 kts 76°
2026-04-28 15:29 49.99462 8.97090 7674 ft 140 kts 76°
2026-04-28 15:30 49.99675 8.98580 8127 ft 145 kts 76°
2026-04-28 15:30 49.99898 9.00128 8589 ft 149 kts 76°
2026-04-28 15:30 50.00129 9.01738 9035 ft 154 kts 77°
2026-04-28 15:30 50.00362 9.03380 9512 ft 158 kts 76°
2026-04-28 15:31 50.00603 9.05063 9987 ft 162 kts 76°
2026-04-28 15:31 50.00850 9.06789 10420 ft 165 kts 77°
2026-04-28 15:31 50.01097 9.08535 10877 ft 166 kts 76°
2026-04-28 15:31 50.01348 9.10296 11334 ft 167 kts 76°
2026-04-28 15:32 50.01599 9.12066 11791 ft 168 kts 76°
2026-04-28 15:32 50.01853 9.13851 12253 ft 170 kts 77°
2026-04-28 15:32 50.02108 9.15653 12703 ft 172 kts 76°
2026-04-28 15:32 50.02368 9.17473 13158 ft 173 kts 76°
2026-04-28 15:33 50.02628 9.19310 13611 ft 175 kts 76°
2026-04-28 15:33 50.02891 9.21165 14049 ft 177 kts 76°
2026-04-28 15:33 50.03157 9.23041 14446 ft 179 kts 76°
2026-04-28 15:33 50.03424 9.24941 14843 ft 180 kts 76°
2026-04-28 15:34 50.03697 9.26864 15217 ft 184 kts 75°
2026-04-28 15:34 50.03972 9.28815 15609 ft 186 kts 75°
2026-04-28 15:34 50.04287 9.30782 15986 ft 188 kts 70°
2026-04-28 15:34 50.04612 9.32768 16366 ft 190 kts 76°
2026-04-28 15:35 50.04844 9.34792 16776 ft 192 kts 76°
2026-04-28 15:35 50.05392 9.38915 17522 ft 196 kts 74°
2026-04-28 15:35 50.05685 9.40992 17947 ft 197 kts 73°
2026-04-28 15:36 50.05985 9.43068 18351 ft 198 kts 72°
2026-04-28 15:36 50.06292 9.45164 18684 ft 200 kts 72°
2026-04-28 15:36 50.06600 9.47290 19010 ft 202 kts 74°
2026-04-28 15:36 50.06804 9.49458 19363 ft 203 kts 83°
2026-04-28 15:37 50.06832 9.51653 19730 ft 204 kts 86°
2026-04-28 15:37 50.06853 9.53844 20051 ft 206 kts 85°
2026-04-28 15:37 50.06876 9.56084 20361 ft 208 kts 85°
2026-04-28 15:37 50.06903 9.58337 20696 ft 209 kts 86°
2026-04-28 15:38 50.06930 9.60594 21059 ft 208 kts 86°
2026-04-28 15:38 50.06957 9.62857 21354 ft 211 kts 86°
2026-04-28 15:38 50.06982 9.65148 21651 ft 213 kts 85°
2026-04-28 15:38 50.07004 9.67458 21992 ft 213 kts 86°
2026-04-28 15:39 50.07026 9.69768 22311 ft 214 kts 86°
2026-04-28 15:39 50.07047 9.72086 22608 ft 216 kts 86°
2026-04-28 15:39 50.07070 9.74426 22926 ft 217 kts 86°
2026-04-28 15:39 50.07091 9.76786 23244 ft 218 kts 86°
2026-04-28 15:40 50.07111 9.79155 23567 ft 218 kts 86°
2026-04-28 15:40 50.07133 9.81518 23853 ft 220 kts 86°
2026-04-28 15:40 50.07158 9.83909 24086 ft 222 kts 86°
2026-04-28 15:40 50.07182 9.86314 24320 ft 223 kts 86°
2026-04-28 15:41 50.07203 9.88735 24576 ft 224 kts 86°
2026-04-28 15:41 50.07225 9.91155 24829 ft 224 kts 86°
2026-04-28 15:41 50.07247 9.93592 25058 ft 226 kts 87°
2026-04-28 15:41 50.07268 9.96051 25282 ft 228 kts 87°
2026-04-28 15:42 50.07289 9.98515 25516 ft 228 kts 87°
2026-04-28 15:42 50.07310 10.00991 25747 ft 229 kts 87°
2026-04-28 15:42 50.07331 10.03481 25965 ft 231 kts 87°
2026-04-28 15:42 50.07350 10.05983 26181 ft 232 kts 87°
2026-04-28 15:43 50.07368 10.08500 26413 ft 233 kts 87°
2026-04-28 15:43 50.07386 10.11038 26617 ft 235 kts 87°
2026-04-28 15:43 50.07399 10.13598 26819 ft 237 kts 88°
2026-04-28 15:43 50.07409 10.16172 27030 ft 239 kts 88°
2026-04-28 15:44 50.07419 10.18761 27247 ft 240 kts 88°
2026-04-28 15:44 50.07426 10.21369 27454 ft 241 kts 88°
2026-04-28 15:44 50.07435 10.23984 27668 ft 242 kts 88°
2026-04-28 15:44 50.07443 10.26614 27876 ft 244 kts 88°
2026-04-28 15:45 50.07456 10.29224 28093 ft 245 kts 88°
2026-04-28 15:45 50.07472 10.31878 28286 ft 246 kts 88°
2026-04-28 15:45 50.07487 10.34586 28498 ft 247 kts 88°
2026-04-28 15:45 50.07500 10.37268 28697 ft 248 kts 88°
2026-04-28 15:46 50.07513 10.39965 28895 ft 250 kts 88°
2026-04-28 15:46 50.07523 10.42637 29087 ft 251 kts 88°
2026-04-28 15:46 50.07533 10.45364 29286 ft 252 kts 88°
2026-04-28 15:46 50.07543 10.48101 29475 ft 253 kts 88°
2026-04-28 15:47 50.07553 10.50851 29668 ft 254 kts 88°
2026-04-28 15:47 50.07563 10.53611 29852 ft 256 kts 88°
2026-04-28 15:47 50.07571 10.56387 30052 ft 257 kts 88°
2026-04-28 15:47 50.07579 10.59182 30222 ft 259 kts 88°
2026-04-28 15:48 50.07586 10.61987 30381 ft 260 kts 88°
2026-04-28 15:48 50.07592 10.64816 30524 ft 262 kts 88°
2026-04-28 15:48 50.07599 10.67659 30666 ft 263 kts 88°
2026-04-28 15:48 50.07602 10.70518 30800 ft 265 kts 89°
2026-04-28 15:49 50.07427 10.73373 30932 ft 266 kts 101°
2026-04-28 15:49 50.06916 10.76133 31086 ft 265 kts 111°
2026-04-28 15:49 50.06324 10.78877 31149 ft 271 kts 110°
2026-04-28 15:49 50.05730 10.81701 31159 ft 278 kts 109°
2026-04-28 15:50 50.05121 10.84596 31165 ft 285 kts 110°
2026-04-28 15:50 50.04495 10.87561 31166 ft 292 kts 110°
2026-04-28 15:50 50.03853 10.90595 31170 ft 298 kts 110°
2026-04-28 15:50 50.03196 10.93690 31167 ft 304 kts 110°
2026-04-28 15:51 50.01842 11.00058 31178 ft 315 kts 110°
2026-04-28 15:51 50.00443 11.06605 31175 ft 323 kts 110°
2026-04-28 15:52 49.99003 11.13315 31172 ft 331 kts 110°
2026-04-28 15:52 49.97541 11.20103 31173 ft 336 kts 110°
2026-04-28 15:53 49.96052 11.27029 31158 ft 340 kts 110°
2026-04-28 15:53 49.94562 11.34032 31163 ft 343 kts 110°
2026-04-28 15:54 49.93058 11.41089 31167 ft 346 kts 110°
2026-04-28 15:54 49.91672 11.48270 31165 ft 348 kts 107°
2026-04-28 15:55 49.90383 11.55472 31159 ft 345 kts 107°
2026-04-28 15:55 49.89093 11.62621 31152 ft 343 kts 107°
2026-04-28 15:56 49.88007 11.69811 31147 ft 342 kts 100°
2026-04-28 15:56 49.87348 11.77108 31146 ft 341 kts 97°
2026-04-28 15:57 49.86712 11.84397 31140 ft 341 kts 98°
2026-04-28 15:57 49.86071 11.91625 31140 ft 341 kts 97°
2026-04-28 15:58 49.85419 11.98897 31141 ft 341 kts 98°
2026-04-28 15:58 49.84764 12.06168 31138 ft 341 kts 98°
2026-04-28 15:59 49.84215 12.12250 31136 ft 340 kts 98°
2026-04-28 15:59 49.83448 12.20681 31159 ft 340 kts 98°
2026-04-28 16:00 49.82782 12.27932 31162 ft 340 kts 98°
2026-04-28 16:00 49.82118 12.35182 31167 ft 340 kts 97°
2026-04-28 16:01 49.81445 12.42441 31163 ft 341 kts 98°
2026-04-28 16:01 49.80635 12.48405 31162 ft 341 kts 105°
2026-04-28 16:02 49.79257 12.55420 31157 ft 340 kts 108°
2026-04-28 16:02 49.77850 12.62414 31160 ft 340 kts 108°
2026-04-28 16:03 49.76446 12.69397 31161 ft 340 kts 108°
2026-04-28 16:03 49.75037 12.76369 31171 ft 340 kts 108°
2026-04-28 16:04 49.73623 12.83354 31166 ft 341 kts 108°
2026-04-28 16:04 49.72203 12.90339 31165 ft 341 kts 108°
2026-04-28 16:05 49.70778 12.97318 31164 ft 341 kts 108°
2026-04-28 16:05 49.69347 13.04303 31168 ft 341 kts 108°
2026-04-28 16:06 49.67922 13.11236 31168 ft 341 kts 108°
2026-04-28 16:06 49.66482 13.18215 31143 ft 341 kts 109°
2026-04-28 16:07 49.65042 13.25178 31151 ft 341 kts 109°
2026-04-28 16:08 49.62871 13.35621 31161 ft 341 kts 109°
2026-04-28 16:08 49.61413 13.42598 31161 ft 342 kts 109°
2026-04-28 16:09 49.59218 13.53058 31158 ft 342 kts 109°
2026-04-28 16:10 49.57012 13.63528 31168 ft 343 kts 109°
2026-04-28 16:10 49.54785 13.74022 31162 ft 344 kts 109°
2026-04-28 16:11 49.51809 13.87993 31161 ft 343 kts 109°
2026-04-28 16:12 49.49567 13.98443 31157 ft 343 kts 109°
2026-04-28 16:13 49.47326 14.08844 31160 ft 343 kts 109°
2026-04-28 16:14 49.44307 14.22761 31151 ft 343 kts 109°
2026-04-28 16:15 49.41272 14.36666 31150 ft 343 kts 109°
2026-04-28 16:15 49.39749 14.43604 31157 ft 343 kts 109°
2026-04-28 16:16 49.37456 14.54022 31153 ft 344 kts 109°
2026-04-28 16:17 49.35142 14.64470 31153 ft 345 kts 109°
2026-04-28 16:17 49.33596 14.71420 31152 ft 345 kts 109°
2026-04-28 16:18 49.32045 14.78373 31157 ft 345 kts 109°
2026-04-28 16:18 49.30497 14.85286 31160 ft 345 kts 109°
2026-04-28 16:19 49.28934 14.92250 31156 ft 346 kts 109°
2026-04-28 16:19 49.27346 14.99209 31153 ft 346 kts 110°
2026-04-28 16:20 49.25662 15.06103 31148 ft 346 kts 111°
2026-04-28 16:20 49.23962 15.12988 31152 ft 346 kts 111°
2026-04-28 16:21 49.22267 15.19883 31152 ft 346 kts 111°
2026-04-28 16:21 49.20574 15.26777 31161 ft 346 kts 110°
2026-04-28 16:22 49.18878 15.33660 31151 ft 347 kts 111°
2026-04-28 16:22 49.17174 15.40560 31155 ft 347 kts 111°
2026-04-28 16:23 49.15467 15.47457 31150 ft 347 kts 111°
2026-04-28 16:23 49.13760 15.54330 31138 ft 346 kts 111°
2026-04-28 16:24 49.12045 15.61228 31152 ft 347 kts 111°
2026-04-28 16:24 49.10323 15.68115 31014 ft 352 kts 111°
2026-04-28 16:25 49.09423 15.71668 30622 ft 365 kts 112°
2026-04-28 16:25 49.08483 15.75318 30234 ft 372 kts 112°
2026-04-28 16:25 49.07532 15.78998 29783 ft 372 kts 112°
2026-04-28 16:25 49.06588 15.82674 29329 ft 372 kts 112°
2026-04-28 16:26 49.05649 15.86355 28885 ft 372 kts 111°
2026-04-28 16:26 49.04712 15.90031 28447 ft 372 kts 111°
2026-04-28 16:26 49.03774 15.93704 28003 ft 372 kts 111°
2026-04-28 16:26 49.02849 15.97316 27587 ft 371 kts 111°
2026-04-28 16:27 49.01894 16.01039 27161 ft 371 kts 111°
2026-04-28 16:27 49.00954 16.04696 26755 ft 371 kts 111°
2026-04-28 16:27 48.99078 16.11973 25950 ft 372 kts 111°
2026-04-28 16:28 48.98131 16.15634 25551 ft 372 kts 111°
2026-04-28 16:28 48.97496 16.18115 25283 ft 371 kts 110°
2026-04-28 16:28 48.96263 16.22973 24767 ft 371 kts 111°
2026-04-28 16:28 48.95312 16.26622 24385 ft 371 kts 111°
2026-04-28 16:29 48.93605 16.34006 23621 ft 370 kts 105°
2026-04-28 16:29 48.91891 16.41370 22724 ft 368 kts 109°
2026-04-28 16:30 48.90963 16.44990 22308 ft 367 kts 110°
2026-04-28 16:30 48.90008 16.48580 21879 ft 366 kts 112°
2026-04-28 16:30 48.88981 16.52116 21463 ft 365 kts 113°
2026-04-28 16:30 48.87973 16.55646 21048 ft 363 kts 112°
2026-04-28 16:31 48.87006 16.59175 20641 ft 361 kts 111°
2026-04-28 16:31 48.86064 16.62703 20251 ft 359 kts 111°
2026-04-28 16:31 48.85141 16.66212 19848 ft 357 kts 110°
2026-04-28 16:31 48.84232 16.69701 19453 ft 354 kts 110°
2026-04-28 16:32 48.83328 16.73163 19056 ft 351 kts 110°
2026-04-28 16:32 48.81537 16.79998 18266 ft 346 kts 110°
2026-04-28 16:32 48.80649 16.83375 17827 ft 343 kts 110°
2026-04-28 16:33 48.79765 16.86736 17395 ft 341 kts 110°
2026-04-28 16:33 48.79183 16.88941 17114 ft 340 kts 110°
2026-04-28 16:33 48.78011 16.93379 16549 ft 337 kts 110°
2026-04-28 16:33 48.77141 16.96668 16135 ft 335 kts 111°
2026-04-28 16:34 48.76277 16.99932 15729 ft 333 kts 111°
2026-04-28 16:34 48.75415 17.03176 15332 ft 331 kts 110°
2026-04-28 16:34 48.74560 17.06400 14937 ft 329 kts 111°
2026-04-28 16:34 48.73707 17.09604 14546 ft 326 kts 111°
2026-04-28 16:35 48.72876 17.12740 14163 ft 324 kts 110°
2026-04-28 16:35 48.72035 17.15899 13756 ft 322 kts 111°
2026-04-28 16:35 48.71198 17.19037 13326 ft 320 kts 111°
2026-04-28 16:35 48.70366 17.22149 12901 ft 317 kts 111°
2026-04-28 16:36 48.69529 17.25272 12477 ft 314 kts 111°
2026-04-28 16:36 48.68711 17.28323 12095 ft 310 kts 111°
2026-04-28 16:36 48.67915 17.31285 11728 ft 306 kts 111°
2026-04-28 16:36 48.67117 17.34253 11366 ft 303 kts 111°
2026-04-28 16:37 48.66328 17.37186 11025 ft 300 kts 111°
2026-04-28 16:37 48.65544 17.40089 10680 ft 297 kts 111°
2026-04-28 16:37 48.64768 17.42966 10345 ft 294 kts 111°
2026-04-28 16:38 48.63235 17.48645 9633 ft 289 kts 111°
2026-04-28 16:38 48.62310 17.51322 9235 ft 287 kts 128°
2026-04-28 16:38 48.60750 17.53133 8847 ft 284 kts 158°
2026-04-28 16:38 48.58853 17.53732 8470 ft 277 kts 183°
2026-04-28 16:39 48.56953 17.53411 8118 ft 274 kts 189°
2026-04-28 16:39 48.55061 17.53166 7813 ft 272 kts 186°
2026-04-28 16:39 48.53188 17.52973 7517 ft 268 kts 187°
2026-04-28 16:39 48.51341 17.52677 7232 ft 266 kts 189°
2026-04-28 16:40 48.49503 17.52398 6944 ft 264 kts 187°
2026-04-28 16:40 48.47679 17.52165 6641 ft 262 kts 184°
2026-04-28 16:40 48.45900 17.52551 6298 ft 257 kts 159°
2026-04-28 16:40 48.44429 17.53949 5960 ft 248 kts 135°
2026-04-28 16:41 48.43440 17.56010 5626 ft 241 kts 114°
2026-04-28 16:41 48.43010 17.58389 5304 ft 234 kts 92°
2026-04-28 16:41 48.42865 17.60809 5002 ft 232 kts 96°
2026-04-28 16:41 48.42582 17.63202 4687 ft 232 kts 98°
2026-04-28 16:42 48.42289 17.65582 4328 ft 230 kts 98°
2026-04-28 16:42 48.42017 17.67943 3967 ft 228 kts 97°
2026-04-28 16:42 48.41768 17.70281 3597 ft 225 kts 94°
2026-04-28 16:42 48.41884 17.72570 3319 ft 216 kts 70°
2026-04-28 16:43 48.42598 17.74483 3123 ft 206 kts 48°
2026-04-28 16:43 48.43715 17.75687 3043 ft 192 kts 20°
2026-04-28 16:43 48.44931 17.76392 3025 ft 183 kts 19°
2026-04-28 16:43 48.46114 17.76970 3012 ft 175 kts 14°
2026-04-28 16:44 48.47286 17.77373 2998 ft 170 kts 11°
2026-04-28 16:44 48.48426 17.77711 2992 ft 168 kts 11°
2026-04-28 16:44 48.49541 17.78099 2986 ft 156 kts 15°
2026-04-28 16:44 48.50541 17.78501 2794 ft 140 kts 14°
2026-04-28 16:45 48.51451 17.78818 2616 ft 131 kts 11°
2026-04-28 16:45 48.52387 17.79126 2438 ft 142 kts 13°
2026-04-28 16:45 48.53352 17.79510 2245 ft 144 kts 15°
2026-04-28 16:45 48.54316 17.79892 2054 ft 139 kts 13°
2026-04-28 16:46 48.55204 17.80198 1871 ft 127 kts 10°
2026-04-28 16:46 48.56095 17.80505 1733 ft 133 kts 16°
2026-04-28 16:46 48.56975 17.80874 1538 ft 129 kts 15°
2026-04-28 16:46 48.57850 17.81209 1314 ft 135 kts 14°
2026-04-28 16:47 48.58689 17.81496 1184 ft 106 kts 13°
2026-04-28 16:47 48.59366 17.81740 1026 ft 96 kts 12°
2026-04-28 16:47 48.59998 17.81963 905 ft 90 kts 13°
2026-04-28 16:47 48.60597 17.82163 776 ft 85 kts 14°
2026-04-28 16:48 48.60967 17.82315 713 ft 83 kts 11°
2026-04-28 16:48 48.61529 17.82507 603 ft 84 kts 11°
2026-04-28 16:48 48.62221 17.82767 534 ft 61 kts 13°
2026-04-28 16:48 48.62544 17.82865 528 ft 33 kts 12°
2026-04-28 16:49 48.62694 17.82918 529 ft 34 kts 15°
2026-04-28 16:49 48.62949 17.83017 529 ft 41 kts 14°
2026-04-28 16:49 48.63203 17.83108 528 ft 28 kts 13°
2026-04-28 16:49 48.63357 17.83174 526 ft 15 kts 44°
2026-04-28 16:50 48.63353 17.83328 528 ft 18 kts 104°
2026-04-28 16:50 48.63257 17.83366 528 ft 21 kts 194°
2026-04-28 16:50 48.63054 17.83292 529 ft 40 kts 193°
2026-04-28 16:50 48.62786 17.83195 529 ft 35 kts 193°
2026-04-28 16:51 48.62570 17.83116 529 ft 31 kts 193°
2026-04-28 16:51 48.62324 17.83026 529 ft 41 kts 194°
2026-04-28 16:51 48.62109 17.82985 529 ft 24 kts 161°
2026-04-28 16:51 48.61927 17.83080 529 ft 30 kts 176°
2026-04-28 16:52 48.61733 17.83020 529 ft 27 kts 193°
2026-04-28 16:52 48.61582 17.82969 529 ft 17 kts 186°
2026-04-28 16:52 48.61456 17.82955 529 ft 22 kts 182°
2026-04-28 16:52 48.61256 17.82938 529 ft 31 kts 185°
2026-04-28 16:53 48.61176 17.82996 529 ft 12 kts 85°
2026-04-28 16:53 48.61170 17.83114 529 ft 11 kts 93°
2026-04-28 16:53 48.61142 17.83175 529 ft 5 kts 181°
2026-04-28 16:53 48.61137 17.83175 529 ft 0 kts 183°